SL-18 DEB, 22568

Orbit data source: Space-Track

SL-18 DEB, 22568 is space debris in LEO originally from a launch on Thu, 25 Mar 1993 UTC launched from the Plesetsk Missile And Space Complex (PKMTR). Debris objects in space refer to the collection of defunct objects orbiting the Earth. Examples of debris include non-operational satellites, rocket bodies, and fragments generated from explosions, collisions, or faulty payload assembly.

Loading next visibility...
Identifier
22568, 1993-014D
Orbit
LEO
Country
Flag of CISCIS
Related business
Manufacturer
Kompleks-MIT
Mission
Spacecraft
Bus & Motor
Unknown
Mass
Unknown
Launch date (UTC)
1993-03-25 (33 years ago)
Launch vehicle
Unknown
Launch site
Plesetsk Missile And Space Complex (PKMTR)
Object type
Payload
Rocket body
Debris
Shape & HBR
Unknown shape, 0.1 m
Radar Cross Section
Small (<0.1 m²)

Expand to show TLE details & history
Last TLE update: 9 hours ago

TLE from 9 hours ago
0 SL-18 DEB
1 22568U 93014D   25294.56760144  .00002389  00000-0  61219-3 0  9999
2 22568  75.7439 112.8886 0146356 347.5661  76.6412 14.44418681700094
Epoch: 2025-10-21T13:37Z
TLE epoch observation values (Epoch: 2025-10-21T13:37:20.764Z)
Latitude
62.27267°
Longitude
-92.96382°
Altitude
731.717 km
Speed
7.507 km/s
True Right ascension
09h 26m 30s
True Declination
62° 07' 49"
Sunlit
Object was in daylight at epoch
Visualization orbit readout
Latitude
Unknown
Longitude
Unknown
Altitude
Unknown
Speed
Unknown
Apparent Right ascension
Unknown
Apparent Declination
Unknown
Sunlit
N/A
Visualization observer readout
Local Sidereal Time
18:00:13
Azimuth
Unknown
Elevation
Unknown
Doppler factor
Unknown
Orbital elements
Apogee altitude
845.61 km
Perigee altitude
637.212 km
Semi-major axis
7,119.548 km
Eccentricity
0.01464
Inclination
75.7439°
RAAN
112.8886°
Arg. of periapsis
347.5661°
True anomaly
78.27964°
Mean anomaly
76.6412°
Eccentric anomaly
77.45975°
Mean motion
3.61297 °/min
Orbital period
99.64 mins
BSTAR
0.00061219
Loading maneuver chart data...
Computing Atmospheric mass density...
Loading historical data...
Loading historical data...
Loading historical data...
Loading historical data...
Loading historical data...
Loading historical data...
Loading historical data...

Documentation

Showing up to 5 results
|